Regional Weather Roundup
Issued by NWS Charleston, SC

Current Version | Previous Version | Graphics & Text | Print | Product List | Glossary On
Versions: 1 2 3 4 5 6 7 8 9 10 11 12 13 14 15 16 17 18 19 20 21 22 23 24 25 26 27 28 29 30 31 32 33 34 35 36 37 38 39 40 41 42 43 44 45 46 47 48 49 50
000
ASUS42 KCHS 312310
RWRCHS
REGIONAL WEATHER ROUNDUP
NATIONAL WEATHER SERVICE CHARLESTON SC
700 PM EDT THU JUL 31 2014

NOTE: "FAIR" INDICATES FEW OR NO CLOUDS BELOW 12,000 FEET WITH NO
SIGNIFICANT WEATHER AND/OR OBSTRUCTIONS TO VISIBILITY.

NOT ALL STATIONS ARE QUALITY CONTROLLED BY THE NATIONAL
WEATHER SERVICE. USE DATA WITH CAUTION...ESPECIALLY
DEWPOINT OBSERVATIONS.

SCZ027-030-031-034>040-042>050-010000-
...SOUTH CAROLINA...

CITY           SKY/WX    TMP DP  RH WIND       PRES   REMARKS
N CHARLESTON   CLOUDY    78  74  87 E8        30.03R
WATERFRONT PRK   N/A     79 N/A N/A NE10        N/A
FORT JOHNSON   NOT AVBL
MOUNT PLEASANT MOCLDY    75  73  94 CALM      30.03R FOG
JOHNS ISLAND   PTCLDY    79  73  83 NE8       30.03R
PINOPOLIS        N/A     79  73  83 NE7       29.97R
MONCKS CORNER  NOT AVBL
SUMMERVILLE    NOT AVBL
BEAUFORT MCAS  PTSUNNY   83  74  74 E8        30.00S
BEAUFORT ARPT  FAIR      82  75  78 E12       29.99S
HILTON HEAD IS MOSUNNY   82  75  78 NE7       30.00S
GEORGETOWN     NOT AVBL
WALTERBORO     MOCLDY    79  79 100 E9        30.02F
ORANGEBURG     PTSUNNY   77  70  79 E9        30.04F
BARNWELL       FAIR      81  70  69 E7        30.03S
AIKEN          CLOUDY    72  72 100 NE9       30.09R
MANNING        CLOUDY    73 N/A N/A N6        30.06S
KINGSTREE      NOT AVBL
COLUMBIA       CLOUDY    74  69  85 NE9       30.06S
SUMTER         CLOUDY    72  70  94 NE8       30.06R
FLORENCE       CLOUDY    77  71  82 NE7       30.08S
MYRTLE BEACH   PTSUNNY   82  72  69 E17       30.06R
N MYRTLE BEACH CLOUDY    82  70  66 E15       30.06S

$$

GAZ063-065-086>088-099>101-113>116-118-119-134-136>141-150-010000-
...GEORGIA...

CITY           SKY/WX    TMP DP  RH WIND       PRES   REMARKS
SAVANNAH ARPT  PTSUNNY   81  76  84 N5        29.99S
HUNTER AAF     MOSUNNY   83  74  76 N2        29.96F
FORT STEWART   MOSUNNY   81  72  74 NE9       29.97R
STATESBORO     NOT AVBL
SYLVANIA       MOCLDY    80  76  88 E7        30.01S
CLAXTON        CLOUDY    82  77  83 NE8       29.99R HX  91
THOMSON        CLOUDY    74  74 100 N6        30.10R
AUGUSTA-BUSH   PTSUNNY   77  72  84 N7        30.02S
AUGUSTA-DANIEL CLOUDY    75  71  87 N8        30.05S
SWAINSBORO     FAIR      82  75  78 E6        30.01R
VIDALIA          N/A     81  73  78 NE13      29.98R
ALMA           MOSUNNY   91  56  30 S5        29.95S
WAYCROSS       MOSUNNY   94  64  36 W3        29.95S HX  96
JESUP          FAIR      91  70  49 S8        29.95S HX  97
BRUNSWICK      SUNNY     90  64  43 SE9       29.98R HX  91
SAINT SIMONS   SUNNY     86  69  56 SE12      29.97R HX  90

$$

SCZ027-028-034-036>038-045-046-048>050-GAZ119-141-010000-
...LAKE AND SUPPLEMENTAL COASTAL OBSERVATIONS...

STATION/POSITION TIME  TEMP    WIND        PRES    WAVE   SWELL
                       AIR SEA DIR/SP/G            HT/PER HT/PER/DIR
                 (UTC) (F)     (DEG/KT/KT) (MB)    (FT/S) (FT/S/D)
UPR LAKE MARION  NOT AVBL
WINYAH BAY       2200   82      90/ 13     1017.0S
LAKE MURRAY      2200   72      80/  4/ 12 1018.3R
ACE BASIN NERRS  2200   81      60/  5     1016.0S
FORT PULASKI     2300   85     120/  7/  9 1015.4F
SAPELO ISLAND    2200   90     150/  9     1016.0S

$$

ANZ835-935-AMZ111-154-330-350-352-354-374-450-454-472-010000-
...C-MAN AND BUOY OBSERVATIONS...

STATION/POSITION TIME  TEMP    WIND        PRES    WAVE   SWELL
                       AIR SEA DIR/SP/G            HT/PER HT/PER/DIR
                 (UTC) (F)     (DEG/KT/KT) (MB)    (FT/S) (FT/S/D)
FOLLY BEACH CMAN 2200   80      90/ 14/ 16 1016.9R
BUOY 41004       2300   84 83  130/ 16/ 17 1015.6R   4/ 5   2/ 8
BUOY 41008       2300   85 86  140/ 12/ 14 1015.0R   2/ 8   2/ 90/ 8
5E ST. MARYS GA  2300      86                N/A     2/ 8
FRYING PAN BUOY  NOT AVBL
BUOY 41025       2300          VRB 14/ 17  1020.0R   3/ 6   2/160/14
CAPE LOOKOUT NC  2200   80      80/ 14/ 15 1019.4F
BUOY 41002       2158   80 81  170/  4/  4 1018.7R   4/ 6   3/ 70/ 6
BUOY 41010       2300   83 84  160/  8/  8 1016.2R   2/ 8   2/110/ 8
BUOY 41012       NOT AVBL
ST AUGUSTINE FL  2300   83     120/ 13/ 14 1015.6S
CAPERS NEARSHORE 2200   78      80/ 16/ 19   N/A
FRIPP NEARSHORE  NOT AVBL


$$



USA.gov is the U.S. government's official web portal to all federal, state and local government web resources and services.